Paso Robles, CA

8:41 AM PST on February 27, 2017 (GMT -0800)
Paso Robles Municipal

Weather History for KPRB - May, 2013

Change the Weather History Date:

Saturday, May 4, 2013

  Actual Average Record
Temperature  
Mean Temperature 67 °F 61 °F  
Max Temperature 85 °F 78 °F 98 °F (1990)
Min Temperature 48 °F 44 °F 32 °F (1964)
Degree Days  
Heating Degree Days 0 5  
Month to date heating degree days 0 21  
Since 1 July heating degree days 2348 2733  
Cooling Degree Days 2 1  
Month to date cooling degree days 17 4  
Year to date cooling degree days 46 13  
Growing Degree Days 17 (Base 50)    
Moisture  
Dew Point 35 °F    
Average Humidity 49    
Maximum Humidity 83    
Minimum Humidity 14    
Precipitation  
Precipitation 0.00 in 0.02 in 0.16 in (1998)
Month to date precipitation 0.00 0.06  
Year to date precipitation 1.41 8.57  
Since 1 July precipitation 4.62  
Sea Level Pressure  
Sea Level Pressure 29.71 in    
Wind  
Wind Speed 9 mph (SW)    
Max Wind Speed 26 mph    
Max Gust Speed 32 mph    
Visibility 10 miles    
Events      
T = Trace of Precipitation, MM = Missing Value Source: NWS Daily Summary

Daily Weather History Graph

Daily Weather History Graph

Search for Another Location

Airport or City:

Trip Planner

Search our weather history database for the weather conditions in past years. The results will help you decide how hot, cold, wet, or windy it might be!

Date:

Astronomy

May. 04, 2013 Rise Set
Actual Time 6:07 AM PDT 7:51 PM PDT
Civil Twilight 5:39 AM PDT 8:19 PM PDT
Nautical Twilight 5:06 AM PDT 8:53 PM PDT
Astronomical Twilight 4:30 AM PDT 9:28 PM PDT
Moon 2:57 AM PDT (5/4) 3:04 PM PDT (5/4)
Length of Visible Light 14h 40m
Length of Day
13h 44m
Waning Crescent, 26% of the Moon is Illuminated
May 4
Waning Crescent
May 9
New
May 17
First Quarter
May 24
Full
May 31
Last Quarter

Hourly Weather History & Observations

Time (PDT) Temp. Dew Point Humidity Pressure Visibility Wind Dir Wind Speed Gust Speed Precip Events Conditions
12:53 AM 61.0 °F 25.0 °F 25% 29.80 in 10.0 mi West 5.8 mph - N/A   Clear
1:53 AM 61.0 °F 25.0 °F 25% 29.78 in 10.0 mi Calm Calm - N/A   Clear
2:53 AM 57.0 °F 26.1 °F 30% 29.77 in 10.0 mi Calm Calm - N/A   Clear
3:53 AM 52.0 °F 25.0 °F 35% 29.75 in 10.0 mi Calm Calm - N/A   Clear
4:53 AM 51.1 °F 25.0 °F 36% 29.74 in 10.0 mi Calm Calm - N/A   Clear
5:53 AM 53.1 °F 24.1 °F 32% 29.74 in 10.0 mi Calm Calm - N/A   Clear
6:53 AM 50.0 °F 26.1 °F 39% 29.74 in 10.0 mi Calm Calm - N/A   Clear
7:53 AM 57.0 °F 27.0 °F 32% 29.74 in 10.0 mi Calm Calm - N/A   Clear
8:53 AM 63.0 °F 28.0 °F 27% 29.73 in 10.0 mi Calm Calm - N/A   Clear
9:53 AM 71.1 °F 23.0 °F 16% 29.71 in 10.0 mi SW 3.5 mph - N/A   Clear
10:53 AM 77.0 °F 26.1 °F 15% 29.69 in 10.0 mi SSW 3.5 mph - N/A   Clear
11:53 AM 82.9 °F 35.1 °F 18% 29.67 in 10.0 mi SW 15.0 mph - N/A   Clear
12:53 PM 84.0 °F 30.0 °F 14% 29.65 in 10.0 mi SSW 18.4 mph - N/A   Clear
1:53 PM 81.0 °F 33.1 °F 18% 29.66 in 10.0 mi SSW 17.3 mph 27.6 mph N/A   Clear
2:53 PM 79.0 °F 30.0 °F 17% 29.65 in 10.0 mi SW 19.6 mph 28.8 mph N/A   Clear
3:53 PM 73.9 °F 35.1 °F 24% 29.65 in 10.0 mi SW 23.0 mph 32.2 mph N/A   Clear
4:53 PM 70.0 °F 44.1 °F 39% 29.65 in 10.0 mi SSW 16.1 mph - N/A   Clear
5:53 PM 64.0 °F 48.9 °F 58% 29.67 in 10.0 mi SW 16.1 mph - N/A   Clear
6:53 PM 59.0 °F 48.9 °F 69% 29.68 in 10.0 mi SSW 15.0 mph - N/A   Clear
7:53 PM 55.0 °F 48.0 °F 77% 29.68 in 10.0 mi SSW 16.1 mph - N/A   Clear
8:53 PM 53.1 °F 48.0 °F 83% 29.70 in 10.0 mi SSW 11.5 mph - N/A   Clear
9:00 PM 53.6 °F 48.2 °F 82% 29.71 in 10.0 mi SSW 15.0 mph - N/A   Partly Cloudy
9:53 PM 53.1 °F 48.0 °F 83% 29.71 in 10.0 mi SW 11.5 mph - N/A   Partly Cloudy
10:26 PM 53.6 °F 48.2 °F 82% 29.73 in 10.0 mi SW 8.1 mph - N/A   Mostly Cloudy
10:53 PM 54.0 °F 48.0 °F 80% 29.72 in 10.0 mi SW 13.8 mph - N/A   Mostly Cloudy
11:53 PM 54.0 °F 48.9 °F 83% 29.72 in 10.0 mi SSW 10.4 mph - N/A   Overcast